{"data":{"norad_id":57213,"intl_designator":"2023-093A","name":"H2SAT (HEINRICH HERTZ)","alt_names":[],"object_type":"PAYLOAD","status":"ACTIVE","operator":null,"country":"GER","launch_date":"2023-07-05","launch_site_code":"FRGUI","launch_vehicle":null,"mission":null,"orbit_class":"UNKNOWN","rcs_meters":null,"size_class":null,"mass_kg":null,"dimensions":null,"purposes":["comms"],"wikipedia_slug":null,"has_3d_model":false,"image_url":null,"decayed_at":null,"tle_current":{"epoch":"2026-09-19T00:05:21.005376Z","epoch_age_seconds":147632,"freshness":"FRESH","line1":"1 57213U 23093A   26262.00371534  .00000000  00000+0  00000+0 0  9994","line2":"2 57213   0.0222  55.8292 0000153  24.8069 279.3656  1.00270046 11858","mean_motion":1.00270046,"eccentricity":1.53e-5,"inclination_deg":0.0222,"raan_deg":55.8292,"arg_perigee_deg":24.8069,"mean_anomaly_deg":279.3656,"bstar":0,"rev_number":1185,"period_min":1436.1218104956,"perigee_km":35786.437345206,"apogee_km":35787.727600922,"semimajor_km":42165.219473064,"source":"CELESTRAK","updated_at":"2026-09-20T09:00:35.333732Z"}}}